This is the latest recevied weather packets stored in our database for station/object KD8ZLZ-13. If no packets are shown the sender has not sent any weather packets the latest 10 day(s).
| Time | Temp. | Humidity | Pressure | Rain* | Wind** | Luminosity | Snow |
|---|---|---|---|---|---|---|---|
| 1777328670 | 17.22° C | 58% | 1015.6 hPa | 0 mm | - | 46 W/m² | - |
| 1777328070 | 17.78° C | 54% | 1015.6 hPa | 0 mm | - | 50 W/m² | - |
| 1777327470 | 18.33° C | 52% | 1015.6 hPa | 0 mm | - | 55 W/m² | - |
| 1777326870 | 18.33° C | 51% | 1015.6 hPa | 0 mm | - | 84 W/m² | - |
| 1777326270 | 18.33° C | 51% | 1015.3 hPa | 0 mm | - | 96 W/m² | - |
| 1777325670 | 18.89° C | 52% | 1015.6 hPa | 0 mm | - | 97 W/m² | - |
| 1777325070 | 18.89° C | 53% | 1015.3 hPa | 0 mm | - | 100 W/m² | - |
| 1777324470 | 18.89° C | 52% | 1015.3 hPa | 0 mm | - | 124 W/m² | - |
| 1777323870 | 18.89° C | 53% | 1015.3 hPa | 0 mm | - | 140 W/m² | - |
| 1777323270 | 18.89° C | 53% | 1015.3 hPa | 0 mm | - | 155 W/m² | - |
| 1777322670 | 18.89° C | 53% | 1015.6 hPa | 0 mm | - | 176 W/m² | - |
| 1777322070 | 18.33° C | 54% | 1015.6 hPa | 0 mm | - | 174 W/m² | - |
| 1777321470 | 18.33° C | 55% | 1015.6 hPa | 0 mm | - | 139 W/m² | - |
| 1777320870 | 18.33° C | 55% | 1015.6 hPa | 0 mm | - | 141 W/m² | - |
| 1777320270 | 18.89° C | 54% | 1015.6 hPa | 0 mm | - | 238 W/m² | - |
| 1777319670 | 19.44° C | 54% | 1015.6 hPa | 0 mm | - | 343 W/m² | - |
| 1777319070 | 19.44° C | 54% | 1015.6 hPa | 0 mm | - | 378 W/m² | - |
| 1777318470 | 19.44° C | 54% | 1015.9 hPa | 0 mm | - | 407 W/m² | - |
| 1777317870 | 19.44° C | 54% | 1015.9 hPa | 0 mm | - | 401 W/m² | - |
| 1777317270 | 19.44° C | 54% | 1016.3 hPa | 0 mm | - | 423 W/m² | - |
| 1777316670 | 19.44° C | 54% | 1015.9 hPa | 0 mm | - | 470 W/m² | - |
| 1777316070 | 19.44° C | 54% | 1016.3 hPa | 0 mm | - | 539 W/m² | - |
| 1777315470 | 19.44° C | 54% | 1016.6 hPa | 0 mm | - | 633 W/m² | - |
| 1777314870 | 19.44° C | 54% | 1016.3 hPa | 0 mm | - | 585 W/m² | - |
| 1777314270 | 20° C | 55% | 1016.3 hPa | 0 mm | - | 561 W/m² | - |
* Rain latest hour (hover to see other rain measurements)
** Current wind speed in m/s (hover to see current wind gust speed)